OBJECT E, 62733

Orbit data source: Space-Track

You're viewing an Uncataloged Satellite

Recently launched and/or uncataloged satellites may have evolving metadata. Metadata may include but not limited to: Owner, Maufacturer, Bus, Motor, and Mission.

OBJECT E, 62733 is a Chinese satellite in SSO that was launched on Mon, 20 Jan 2025 UTC via a GUSHENXING 1 launch vehicle from the Jiuquan Satellite Launch Center, China (JSC). Unknown objects in Earth's orbit typically refer to objects detected orbiting the Earth but have not yet been identified or cataloged. These objects could be anything from previously untracked satellites, spent rocket stages, debris from satellite collisions, or even natural meteoroids temporarily captured by Earth's gravity.

Loading next visibility...
Identifier
62733, 2025-013E
Orbit
SSO
Country
Flag of CNCN / PRC
Related business
None
Manufacturer
Unknown
Mission
Operational Commercial Imaging
Bus & Motor
Unknown
Mass
Unknown
Launch date (UTC)
2025-01-20 (1 year ago)
Launch vehicle
GUSHENXING 1
Launch site
Jiuquan Satellite Launch Center, China (JSC)
Object type
Unknown
Shape & HBR
Box + 1 Pan, 0.5 m
Radar Cross Section
5.339 m², Medium (>0.1 m² and < 1m²)

Expand to show TLE details & history
Last TLE update: 9 hours ago

TLE from 9 hours ago
0 OBJECT E
1 62733U 25013E   26072.57745278  .00004566  00000-0  28186-3 0  9993
2 62733  97.6472 241.9466 0008259 354.6633   5.4506 15.10382753 62782
Epoch: 2026-03-13T13:51Z
TLE epoch observation values (Epoch: 2026-03-13T13:51:31.920Z)
Latitude
-0.00009°
Longitude
-137.14738°
Altitude
532.417 km
Speed
7.6 km/s
True Right ascension
16h 07m 47s
True Declination
0° 00' 00"
Sunlit
Object was in daylight at epoch
Visualization orbit readout
Latitude
Unknown
Longitude
Unknown
Altitude
Unknown
Speed
Unknown
Apparent Right ascension
Unknown
Apparent Declination
Unknown
Sunlit
N/A
Visualization observer readout
Local Sidereal Time
03:19:44
Azimuth
Unknown
Elevation
Unknown
Doppler factor
Unknown
Orbital elements
Apogee altitude
537.728 km
Perigee altitude
526.314 km
Semi-major axis
6,910.158 km
Eccentricity
0.00083
Inclination
97.6472°
RAAN
241.9466°
Arg. of periapsis
354.6633°
True anomaly
5.4596°
Mean anomaly
5.4506°
Eccentric anomaly
5.4551°
Mean motion
3.77843 °/min
Orbital period
95.28 mins
BSTAR
0.00028186
Loading maneuver chart data...
Computing Atmospheric mass density...
Loading historical data...
Loading historical data...
Loading historical data...
Loading historical data...
Loading historical data...
Loading historical data...
Loading historical data...
Other satellites on launch #13 in the year 2025 (2025-01-20 UTC)

Documentation

Showing up to 5 results
|